Probability
0 0 0 0 0 0 0 0 0 0 0 2 7 11 10 6 3 2 1 4 9 10 7 6 6 5 4 3 2 1 0 0 0 1 2 4 5 5 6 6 4 2 1 0 0 0 0 0 0
0 0 0 0 0 0 0 0 0 0 2 6 12 15 14 9 3 1 2 5 10 10 7 6 6 6 4 3 1 0 1 1 0 0 2 4 4 4 6 6 4 2 1 0 0 0 0 0 0
0 0 0 0 0 0 0 0 1 2 8 15 20 20 16 10 4 2 4 9 13 13 11 9 8 8 6 3 1 1 3 2 1 1 2 4 4 3 4 4 3 2 1 0 0 0 0 0 0
0 0 0 0 0 0 0 1 3 9 17 25 28 24 18 11 6 5 9 14 18 18 16 14 14 12 9 7 4 4 6 6 5 4 5 5 5 4 4 3 3 1 0 0 0 0 0 0 0
0 0 0 0 0 0 1 3 9 19 28 34 36 29 20 14 10 10 12 17 20 21 18 19 20 17 14 13 11 9 9 9 9 8 7 6 7 7 7 6 4 1 0 0 0 0 0 0 0
0 0 0 0 0 0 2 5 12 23 33 39 39 31 20 16 14 12 13 16 19 20 19 19 21 21 18 18 18 16 13 11 11 9 8 8 8 9 9 9 6 2 1 1 0 0 0 0 0
0 0 0 0 0 0 2 5 11 21 28 32 36 32 23 18 18 16 16 16 16 18 18 16 16 17 18 19 21 21 19 17 15 14 11 9 8 8 9 9 7 4 3 2 1 1 1 1 1
0 0 0 0 0 1 2 6 11 18 21 23 29 31 27 25 24 24 21 17 15 15 15 14 13 13 15 18 20 20 20 19 19 18 15 12 8 7 8 8 7 5 4 3 3 3 3 3 2
0 0 0 0 1 2 4 8 13 16 18 21 25 28 29 31 31 30 26 18 13 12 12 12 11 12 14 15 16 15 15 15 17 17 16 13 9 7 7 7 7 7 6 5 5 4 4 3 2
0 0 0 0 1 4 7 9 11 12 16 19 21 25 28 30 31 30 25 17 11 9 8 8 8 10 13 14 14 12 11 11 12 13 13 11 8 6 5 5 6 8 8 7 7 6 4 2 1
0 0 0 0 1 5 9 11 11 12 14 14 16 19 23 27 29 27 22 15 11 9 7 5 4 7 11 14 14 11 10 10 10 9 8 7 6 5 3 2 4 7 8 8 8 8 7 4 2
0 0 1 2 4 6 10 15 17 16 13 12 12 15 20 26 29 28 23 17 15 14 11 7 5 5 8 12 12 9 8 9 8 6 4 4 4 3 2 2 2 4 7 8 8 8 7 4 2
0 1 2 5 8 9 13 19 22 20 15 14 15 17 22 28 31 33 30 25 24 24 20 14 11 10 11 12 11 7 6 7 6 4 2 1 1 1 1 2 2 3 5 6 6 5 4 2 2
1 1 3 6 9 11 17 22 22 20 18 18 19 21 25 30 34 36 35 32 31 31 27 21 17 16 17 16 13 8 6 6 4 3 2 1 0 0 1 2 2 3 3 4 4 3 2 1 1
3 3 2 4 6 9 14 18 18 17 19 22 23 25 28 32 35 36 36 33 32 31 28 24 19 16 15 16 13 9 6 4 2 2 2 1 0 0 1 1 1 1 3 3 3 3 2 0 0
4 4 3 2 2 4 8 11 12 15 22 27 28 29 31 32 32 33 32 31 29 27 25 21 18 14 12 12 12 9 5 2 1 1 1 0 0 0 0 0 0 1 2 3 3 3 2 1 0
4 4 3 1 0 2 5 7 9 13 21 28 31 32 31 30 29 30 31 30 27 24 22 18 15 14 12 11 10 7 4 1 0 0 0 1 1 1 0 0 0 1 1 1 2 3 1 1 1
3 4 3 1 1 1 4 8 11 12 18 25 31 32 29 26 27 30 33 32 27 21 17 14 13 12 10 8 6 5 3 1 1 1 1 1 2 1 0 0 1 2 2 1 1 1 1 0 0
2 2 2 1 1 1 5 11 14 15 17 23 30 32 27 24 27 31 31 30 25 18 13 12 10 8 4 2 2 3 3 3 2 2 2 2 2 1 0 1 2 3 2 1 0 0 0 0 0
0 1 1 1 0 2 7 12 14 14 16 22 28 29 24 22 25 27 27 25 22 16 12 9 7 4 1 0 1 1 2 2 2 1 1 1 1 1 1 1 2 3 2 1 0 0 0 0 0
0 0 0 0 1 3 7 9 10 12 17 23 26 24 22 21 22 22 22 21 18 15 11 7 4 1 0 0 0 0 1 1 1 0 0 0 0 0 0 0 1 1 2 1 0 0 0 0 0
0 0 0 0 2 4 5 5 7 13 22 26 25 23 22 21 21 19 18 16 14 12 9 5 2 0 0 0 0 0 0 0 0 0 0 0 0 0 0 0 0 1 2 1 0 0 0 0 0
0 0 0 0 1 2 2 2 5 12 21 27 27 24 22 22 21 18 15 12 10 9 8 5 2 1 1 1 1 0 0 0 0 0 0 0 0 0 0 0 0 0 1 1 0 0 0 0 0
0 0 0 0 0 1 1 1 3 7 13 21 26 24 20 21 21 18 14 11 10 8 7 6 3 2 2 1 1 0 0 0 0 1 0 0 0 0 0 0 0 0 0 0 0 0 0 0 0
0 0 0 0 0 0 0 1 3 6 9 14 19 21 19 19 19 18 15 12 10 8 6 4 3 2 1 1 0 0 0 0 0 0 0 0 0 0 0 0 0 0 0 0 0 0 0 0 0
0 0 0 0 0 0 0 1 4 7 9 11 13 17 18 18 19 18 15 11 9 7 4 2 1 1 0 0 0 0 0 0 0 0 0 0 0 0 0 0 0 0 0 0 0 0 0 0 0
0 0 0 0 0 0 0 2 4 6 8 10 12 15 18 19 18 16 12 8 6 5 3 1 0 0 0 0 0 0 0 0 0 0 0 0 0 0 0 0 0 0 0 0 0 0 0 0 0
0 0 0 0 0 0 0 1 2 3 6 10 13 16 19 17 14 10 6 3 2 2 2 2 0 0 0 0 0 0 0 0 0 0 0 0 0 0 0 0 0 0 0 0 0 0 0 0 0
0 0 0 0 0 0 0 0 0 1 5 9 13 16 17 14 9 5 2 1 0 1 2 1 0 0 0 0 0 0 0 0 0 0 0 0 0 0 0 0 0 0 0 0 0 0 0 0 0
0 0 0 0 0 0 0 0 0 1 4 9 13 14 14 11 8 4 2 1 0 1 2 1 0 0 0 0 0 0 0 0 0 0 0 0 0 0 0 0 0 0 0 0 0 0 0 0 0
Wind_Speed
6 4 1 3 6 5 3 5 2 1 4 6 11 13 11 7 5 6 4 13 15 14 11 13 14 15 15 15 15 15 15 14 14 14 14 13 13 12 12 12 11 11 11 10 10 10 9 9 9
3 2 3 5 5 1 5 4 2 3 8 10 12 12 10 8 9 9 7 12 16 14 10 12 15 15 15 15 15 14 14 14 13 13 13 12 12 11 11 11 11 10 9 9 9 8 8 7 7
3 1 4 4 3 4 4 1 5 8 8 8 8 8 7 6 7 6 9 15 14 11 9 12 16 15 15 15 15 14 14 13 13 12 12 11 11 10 9 10 9 9 8 8 8 7 6 6 5
2 4 4 3 4 6 5 4 2 8 7 8 11 9 6 5 5 11 16 16 15 11 9 11 15 15 15 14 14 14 13 13 12 11 11 10 10 9 8 9 8 8 7 7 7 6 5 4 3
4 4 4 2 4 4 3 5 3 6 6 9 13 10 7 7 14 17 16 16 15 11 8 10 14 14 14 14 14 13 13 12 11 11 10 9 8 8 7 7 7 7 6 6 5 4 3 2 1
4 5 3 2 4 3 3 2 7 12 11 10 12 10 5 7 12 13 15 14 13 12 9 9 14 15 14 14 13 13 12 11 10 10 9 8 8 7 7 6 6 6 5 5 4 3 3 2 1
3 3 2 3 3 4 2 2 6 9 9 5 6 9 6 6 9 12 13 13 11 11 10 7 8 10 13 13 13 12 12 11 10 9 8 7 7 7 6 6 5 5 4 4 4 3 3 3 3
4 3 2 2 2 3 1 3 6 9 7 4 5 9 7 8 12 13 13 11 10 9 8 7 6 6 6 7 12 12 11 10 10 9 8 7 7 6 6 5 5 5 5 4 4 4 4 4 4
3 3 2 3 1 1 1 5 5 7 8 5 5 8 11 14 15 14 12 9 8 8 6 6 6 5 5 5 8 9 10 9 8 6 7 5 2 2 3 4 5 6 5 5 5 5 5 5 5
4 3 6 4 3 2 2 6 8 7 9 8 8 10 13 12 14 14 13 10 9 8 6 5 5 5 4 4 4 3 4 4 4 3 3 2 2 2 3 3 5 6 6 6 5 5 5 4 2
4 6 4 2 3 5 5 6 6 12 8 8 12 13 12 11 11 11 10 10 8 7 6 4 4 5 4 3 3 2 2 2 2 3 3 2 1 1 1 1 2 3 4 3 3 3 2 2 2
2 5 3 2 2 4 5 6 7 7 8 12 14 14 12 10 9 9 9 9 8 7 6 5 4 4 4 4 2 2 2 2 1 1 2 2 1 1 0 0 1 1 1 2 1 1 2 2 2
4 5 2 3 5 8 11 11 10 7 11 13 14 13 13 11 8 8 8 8 8 7 5 4 4 4 3 4 2 2 2 2 2 2 2 2 1 1 1 1 1 1 1 1 1 2 2 2 2
5 3 2 3 5 6 13 8 8 7 10 12 12 12 12 11 9 8 8 8 7 6 5 4 5 4 4 3 3 2 2 2 2 1 2 3 1 1 0 0 1 1 1 1 1 1 1 1 0
3 3 2 0 3 5 11 7 6 10 10 11 11 11 11 10 9 8 6 6 6 6 5 5 5 4 4 4 4 3 2 2 2 1 2 2 2 2 1 1 0 1 1 1 1 1 0 1 0
2 3 1 4 2 3 9 6 6 9 12 11 11 11 11 9 9 8 8 6 5 5 5 4 5 5 5 4 4 3 2 2 2 1 1 1 1 1 1 1 0 1 0 1 1 0 0 0 0
4 1 1 4 2 3 7 7 8 8 11 11 11 12 11 10 8 8 8 6 5 5 4 5 5 5 5 5 4 3 2 2 1 1 2 1 2 1 1 1 0 1 1 1 1 0 0 0 0
3 2 2 5 4 4 6 6 9 9 11 11 12 12 11 10 8 7 8 7 6 5 4 5 5 5 4 4 3 2 3 2 2 1 1 2 1 1 1 1 1 1 1 1 1 1 0 0 0
4 3 4 6 4 5 7 10 11 11 11 11 11 12 11 10 8 7 8 8 7 5 5 5 5 4 3 2 2 2 2 1 1 1 2 2 2 2 2 1 2 2 1 1 1 0 1 0 1
4 4 4 5 3 5 7 7 8 10 11 12 14 13 12 10 9 8 7 7 7 6 4 4 4 4 3 2 1 2 2 2 1 1 3 3 3 2 3 3 2 2 1 2 2 1 1 1 0
5 4 4 3 3 5 7 2 3 4 7 9 10 11 11 13 12 9 8 6 7 6 4 4 4 4 3 3 3 3 3 2 2 2 2 3 3 3 3 3 2 2 2 1 2 1 1 0 1
6 5 4 2 3 1 3 3 3 4 5 9 9 10 10 11 10 9 8 7 6 5 5 5 4 4 3 4 4 4 3 2 1 0 1 3 3 3 3 3 3 2 1 1 2 2 1 1 1
6 4 2 2 3 2 1 4 3 2 4 8 11 12 10 10 10 9 8 7 6 6 5 5 5 4 4 4 3 4 3 2 1 2 3 3 3 4 4 3 3 2 1 1 1 2 2 1 0
2 3 6 6 6 2 3 3 2 2 6 8 10 12 11 11 10 9 8 7 6 5 5 5 5 4 3 4 4 4 4 3 3 3 3 2 2 3 4 3 3 2 1 1 1 1 2 1 1
5 7 5 6 5 3 2 3 2 4 4 8 11 11 10 10 10 10 10 8 7 6 5 4 5 4 3 4 4 3 3 3 3 2 2 2 2 2 3 3 3 2 2 2 2 2 2 2 1
1 8 7 4 3 3 3 1 2 1 3 6 8 8 9 9 8 9 9 8 8 7 5 5 4 3 3 4 4 4 3 2 2 2 2 2 1 1 2 3 3 3 3 3 3 2 2 2 2
2 2 7 7 1 1 1 0 1 3 6 7 9 9 9 9 8 9 9 7 7 6 5 4 5 4 3 4 4 4 4 3 3 3 2 2 1 1 3 3 3 4 4 3 3 2 2 2 2
4 5 6 5 3 1 1 1 3 2 3 6 8 9 9 9 8 8 7 7 6 5 4 4 4 4 3 4 3 4 4 4 3 3 4 3 3 3 3 3 3 3 3 3 3 2 2 3 2
3 3 4 4 5 5 2 4 3 5 5 6 7 8 10 9 8 7 6 5 6 5 4 4 4 4 4 4 4 4 4 3 4 4 3 3 3 3 3 3 3 3 3 3 3 3 3 3 3
3 3 5 4 2 3 4 4 2 4 5 6 7 7 9 9 8 7 6 6 6 5 4 4 4 4 3 4 4 4 3 4 4 4 3 3 3 3 3 3 3 3 3 3 4 3 4 3 3
Wind_Direction
299 288 62 54 53 47 277 260 208 91 57 72 89 96 96 84 113 130 121 127 128 133 137 136 133 130 128 126 123 121 118 116 113 109 106 103 102 102 103 105 106 107 109 109 108 107 105 104 103
292 313 53 60 82 50 277 249 160 135 128 112 87 85 79 72 82 103 112 129 129 131 133 135 134 131 130 130 128 127 125 122 120 116 113 110 108 106 106 107 107 108 110 111 110 110 108 106 103
294 38 78 76 121 184 231 230 124 114 117 109 91 69 71 88 98 105 130 130 124 124 126 136 136 135 134 134 134 132 130 128 126 123 120 117 114 112 112 113 112 113 114 115 115 114 113 111 105
41 43 52 74 248 234 210 237 130 111 85 82 98 76 64 68 98 123 131 128 121 120 124 134 136 137 137 137 138 137 136 134 133 129 126 124 121 119 119 120 119 119 120 121 121 120 119 117 107
63 70 53 340 269 263 229 229 178 114 98 94 96 91 63 41 103 123 127 125 123 122 123 130 132 135 137 139 141 142 142 140 138 136 134 132 131 129 128 127 126 128 130 131 131 132 135 138 131
49 68 80 276 274 289 286 174 113 101 104 96 96 99 75 91 106 121 124 121 124 127 126 129 134 136 138 141 143 144 144 143 140 140 141 141 139 137 137 138 139 142 145 145 146 153 170 189 223
110 95 191 241 278 297 291 110 105 107 95 81 104 98 104 106 114 118 118 118 119 123 125 127 134 137 139 142 144 144 145 144 145 146 147 147 146 145 149 152 155 162 168 169 176 189 207 229 253
150 93 316 283 270 295 313 80 91 92 89 80 90 119 141 146 124 116 113 114 118 120 125 127 128 130 135 143 147 148 148 148 149 151 153 155 157 159 167 168 175 184 191 196 204 217 229 245 261
118 76 259 241 211 266 82 104 78 68 92 70 75 113 133 135 124 119 115 114 120 123 126 130 130 128 130 141 149 149 152 151 149 151 158 159 158 167 181 193 198 203 207 215 222 231 241 253 264
117 164 235 215 158 151 100 113 122 96 83 81 82 99 124 128 126 127 131 134 133 136 139 135 134 135 135 147 136 140 151 148 144 147 153 150 163 190 198 220 217 221 223 228 234 242 249 256 267
174 207 242 248 159 130 102 87 100 117 110 137 139 137 133 127 122 128 134 137 137 139 137 135 142 144 141 127 135 142 140 141 146 155 159 158 167 203 218 212 246 245 238 243 250 255 260 262 257
248 255 233 228 134 111 107 101 85 104 145 147 141 137 126 117 119 128 132 131 130 130 135 135 139 136 129 115 123 129 126 133 141 147 144 136 157 199 161 169 228 243 247 238 253 257 249 255 255
238 258 251 152 96 97 97 96 100 104 123 125 122 118 115 112 102 105 116 120 122 123 122 122 116 113 109 103 108 120 117 121 134 131 120 112 133 162 158 210 207 239 253 246 244 252 251 257 257
226 198 170 129 114 105 104 96 99 130 128 121 118 115 113 112 116 117 120 121 119 119 119 116 109 111 107 100 104 99 103 109 104 98 108 111 123 134 103 249 230 250 265 259 240 233 223 235 246
194 114 16 172 128 130 104 72 124 148 133 124 119 116 113 111 117 112 112 115 117 119 116 118 115 102 102 101 98 97 96 97 86 63 58 100 130 139 135 117 248 275 284 292 269 256 194 196 189
19 80 34 281 166 169 111 135 165 152 141 135 131 124 114 110 108 106 101 101 101 102 106 110 114 105 100 98 99 104 106 97 87 76 78 87 93 109 112 108 257 298 331 325 289 273 151 128 85
18 78 223 284 246 143 115 154 174 165 147 144 138 129 124 120 109 106 105 104 98 90 93 90 89 97 99 100 103 106 99 86 85 74 59 63 66 74 87 59 14 9 12 341 315 30 123 103 20
255 234 248 243 245 128 127 154 160 169 156 150 144 138 134 131 128 122 114 106 96 86 83 86 84 84 96 102 101 91 84 79 73 69 60 63 64 66 71 62 29 29 13 350 347 47 28 159 190
230 248 261 256 234 149 152 155 170 167 158 156 153 148 144 139 134 126 116 109 104 96 90 88 85 82 96 106 117 115 102 87 59 41 47 49 46 48 74 67 44 30 31 355 358 30 38 16 95
254 268 278 286 269 143 150 159 172 169 172 170 162 159 154 145 138 133 126 117 108 103 101 93 84 81 83 93 111 114 110 92 82 37 31 34 42 38 58 53 45 24 32 20 13 24 37 335 83
272 234 233 251 26 72 114 108 172 173 162 163 160 159 156 154 152 146 134 123 114 111 111 107 91 77 70 75 82 85 69 56 43 29 19 16 33 36 47 54 56 35 39 26 7 26 73 290 320
259 240 219 200 107 231 136 169 246 192 159 161 163 162 162 157 150 144 137 131 125 119 111 99 90 76 68 75 89 103 108 103 90 76 43 26 32 31 39 49 51 41 38 27 5 36 42 83 351
228 233 206 161 120 77 32 128 265 131 174 181 172 169 164 157 150 145 140 132 122 115 108 98 87 75 71 77 91 97 94 100 83 66 65 50 29 25 27 34 31 35 37 25 23 23 33 59 120
187 52 32 44 69 50 263 140 264 241 216 186 174 170 163 155 146 138 130 121 113 106 99 91 86 74 67 74 77 89 98 97 83 67 66 50 29 17 20 26 21 20 30 23 23 30 32 33 49
75 82 35 6 17 261 285 110 251 263 210 176 173 169 158 150 143 140 135 130 122 113 107 99 92 78 71 74 73 82 91 97 99 100 85 71 41 15 5 21 19 19 25 37 45 49 41 44 57
174 130 149 181 216 278 356 102 271 348 121 132 143 146 140 141 142 142 139 136 130 125 121 114 103 93 83 83 76 68 69 79 88 97 101 88 75 8 9 25 28 24 26 34 42 40 24 42 55
138 142 160 133 130 35 319 32 321 55 88 113 124 128 140 147 147 146 140 136 134 132 129 125 117 103 90 85 79 70 67 74 78 74 68 62 42 37 40 35 33 27 27 29 41 35 20 40 44
129 143 88 103 137 230 290 242 235 203 148 137 136 144 146 141 139 143 137 136 132 131 125 116 117 114 103 88 83 83 69 67 68 65 54 46 33 35 46 39 41 31 26 28 36 28 27 45 33
47 58 94 111 143 153 204 257 236 190 166 156 147 145 141 138 138 138 137 132 128 120 119 117 112 104 96 88 84 78 69 62 59 55 45 43 36 37 43 38 41 39 34 31 41 38 39 49 39
123 148 136 143 199 159 161 249 297 166 141 139 137 138 139 136 136 139 140 131 128 125 123 120 118 113 109 103 93 82 70 63 55 45 35 38 34 32 40 41 46 48 45 40 45 44 40 47 45